Weather History for Grants-Milan, NM

Change the Weather History Date:

Tuesday, February 5, 2013

  Actual Average Record
Temperature  
Mean Temperature 35 °F -  
Max Temperature 57 °F 48 °F 66 °F (1963)
Min Temperature 13 °F 16 °F -9 °F (1964)
Degree Days  
Heating Degree Days 30    
Moisture  
Dew Point 14 °F    
Average Humidity 52    
Maximum Humidity 94    
Minimum Humidity 17    
Precipitation  
Precipitation 0.00 in - - ()
Sea Level Pressure  
Sea Level Pressure 30.10 in    
Wind  
Wind Speed 5 mph (NNW)    
Max Wind Speed 10 mph    
Max Gust Speed 16 mph    
Visibility 10 miles    
Events      
Averages and records for this station are not official NWS values.
T = Trace of Precipitation, MM = Missing Value Source: NWS Daily Summary

Daily Weather History Graph

Daily Weather History Graph

Search for Another Location

Airport:

Trip Planner

Search our weather history database for the weather conditions in past years. The results will help you decide how hot, cold, wet, or windy it might be!

Date:

Astronomy

Feb. 05, 2013 Rise Set
Actual Time 7:07 AM MST 5:44 PM MST
Civil Twilight 6:40 AM MST 6:10 PM MST
Nautical Twilight 6:10 AM MST 6:41 PM MST
Astronomical Twilight 5:40 AM MST 7:10 PM MST
Moon 2:48 AM MST (2/5) 1:09 PM MST (2/5)
Length of Visible Light 11h 30m
Length of Day
10h 37m
Waning Crescent, 26% of the Moon is Illuminated
Feb 5
Waning Crescent
Feb 10
New
Feb 17
First Quarter
Feb 25
Full
Mar 4
Last Quarter

Hourly Weather History & Observations

Time (MST) Temp. Windchill Dew Point Humidity Pressure Visibility Wind Dir Wind Speed Gust Speed Precip Events Conditions
12:15 AM 20.8 °F 12.1 °F 15.3 °F 79% 30.15 in 10.0 mi NW 6.9 mph - N/A   Clear
12:35 AM 21.9 °F 14.5 °F 16.0 °F 78% 30.15 in 10.0 mi NW 5.8 mph - N/A   Clear
12:55 AM 22.8 °F 15.5 °F 17.4 °F 80% 30.14 in 10.0 mi NW 5.8 mph - N/A   Clear
1:15 AM 22.8 °F 15.5 °F 17.4 °F 80% 30.13 in 10.0 mi WNW 5.8 mph - N/A   Clear
1:35 AM 22.5 °F 15.1 °F 17.6 °F 82% 30.12 in 10.0 mi NW 5.8 mph - N/A   Clear
1:55 AM 21.0 °F 14.6 °F 17.6 °F 87% 30.12 in 10.0 mi NW 4.6 mph - N/A   Clear
2:15 AM 19.8 °F 11.9 °F 16.5 °F 87% 30.13 in 10.0 mi WNW 5.8 mph - N/A   Clear
2:35 AM 19.2 °F - 16.0 °F 87% 30.13 in 10.0 mi Calm Calm - N/A   Clear
2:55 AM 16.7 °F - 13.6 °F 88% 30.12 in 10.0 mi Calm Calm - N/A   Clear
3:15 AM 16.0 °F - 14.5 °F 94% 30.13 in 10.0 mi Calm Calm - N/A   Clear
3:35 AM 15.6 °F - 14.0 °F 93% 30.13 in 10.0 mi Calm Calm - N/A   Clear
3:55 AM 13.8 °F 4.9 °F 11.5 °F 90% 30.13 in 10.0 mi NW 5.8 mph - N/A   Clear
4:35 AM 16.5 °F 6.0 °F 12.0 °F 82% 30.13 in 10.0 mi NW 8.1 mph - N/A   Clear
4:55 AM 18.0 °F 8.7 °F 12.7 °F 80% 30.14 in 10.0 mi WNW 6.9 mph - N/A   Clear
5:15 AM 18.1 °F - 12.9 °F 80% 30.14 in 10.0 mi Calm Calm - N/A   Clear
5:35 AM 14.2 °F - 10.2 °F 84% 30.15 in 10.0 mi Calm Calm - N/A   Clear
5:55 AM 14.7 °F 7.3 °F 11.7 °F 88% 30.14 in 10.0 mi North 4.6 mph - N/A   Clear
6:15 AM 13.5 °F 2.2 °F 10.8 °F 89% 30.14 in 10.0 mi NNW 8.1 mph - N/A   Clear
6:35 AM 13.1 °F 2.8 °F 10.6 °F 90% 30.14 in 10.0 mi NW 6.9 mph - N/A   Clear
6:55 AM 14.9 °F 6.1 °F 11.5 °F 86% 30.15 in 10.0 mi NW 5.8 mph - N/A   Clear
7:15 AM 14.7 °F 3.8 °F 11.5 °F 87% 30.15 in 10.0 mi NW 8.1 mph - N/A   Clear
7:55 AM 18.9 °F 10.8 °F 13.8 °F 81% 30.16 in 10.0 mi WNW 5.8 mph - N/A   Clear
8:15 AM 24.1 °F 16.0 °F 17.2 °F 75% 30.16 in 10.0 mi NW 6.9 mph - N/A   Clear
8:35 AM 26.6 °F 19.1 °F 18.1 °F 70% 30.16 in 10.0 mi NW 6.9 mph - N/A   Clear
8:55 AM 27.7 °F 20.4 °F 17.2 °F 65% 30.16 in 10.0 mi NW 6.9 mph - N/A   Clear
9:15 AM 31.8 °F 23.9 °F 19.6 °F 61% 30.18 in 10.0 mi NNW 9.2 mph - N/A   Clear
9:35 AM 34.9 °F 27.1 °F 19.9 °F 55% 30.17 in 10.0 mi NNW 10.4 mph - N/A   Clear
9:55 AM 37.8 °F 31.8 °F 19.9 °F 49% 30.16 in 10.0 mi NNW 8.1 mph - N/A   Clear
10:15 AM 41.5 °F 37.1 °F 19.2 °F 41% 30.16 in 10.0 mi North 6.9 mph - N/A   Clear
10:35 AM 44.8 °F 41.0 °F 18.3 °F 35% 30.16 in 10.0 mi North 6.9 mph - N/A   Clear
10:55 AM 47.7 °F - 16.5 °F 29% 30.15 in 10.0 mi North 8.1 mph - N/A   Clear
11:15 AM 48.7 °F - 15.1 °F 26% 30.15 in 10.0 mi NNW 5.8 mph - N/A   Clear
11:35 AM 50.4 °F - 13.3 °F 23% 30.14 in 10.0 mi North 9.2 mph - N/A   Clear
11:55 AM 52.0 °F - 14.0 °F 22% 30.12 in 10.0 mi NW 10.4 mph 16.1 mph N/A   Clear
12:15 PM 52.3 °F - 13.3 °F 21% 30.12 in 10.0 mi North 10.4 mph 16.1 mph N/A   Clear
12:35 PM 52.9 °F - 14.0 °F 21% 30.11 in 10.0 mi NNW 10.4 mph 16.1 mph N/A   Clear
12:55 PM 53.6 °F - 14.5 °F 21% 30.10 in 10.0 mi NNW 8.1 mph - N/A   Clear
1:15 PM 54.5 °F - 15.1 °F 21% 30.09 in 10.0 mi North 8.1 mph - N/A   Clear
1:35 PM 54.7 °F - 15.3 °F 21% 30.08 in 10.0 mi North 6.9 mph - N/A   Clear
1:55 PM 55.8 °F - 15.6 °F 21% 30.07 in 10.0 mi North 8.1 mph - N/A   Clear
2:15 PM 56.7 °F - 15.8 °F 20% 30.06 in 10.0 mi NNW 10.4 mph - N/A   Clear
2:35 PM 56.8 °F - 15.3 °F 20% 30.05 in 10.0 mi North 8.1 mph - N/A   Clear
2:55 PM 57.9 °F - 14.7 °F 18% 30.04 in 10.0 mi North 9.2 mph - N/A   Clear
3:15 PM 57.9 °F - 14.2 °F 18% 30.04 in 10.0 mi North 5.8 mph - N/A   Clear
3:35 PM 57.6 °F - 13.8 °F 18% 30.04 in 10.0 mi North 5.8 mph - N/A   Clear
3:55 PM 57.4 °F - 13.8 °F 18% 30.04 in 10.0 mi North 5.8 mph - N/A   Clear
4:15 PM 57.6 °F - 13.6 °F 18% 30.04 in 10.0 mi NNE 5.8 mph - N/A   Clear
4:35 PM 56.7 °F - 12.9 °F 18% 30.04 in 10.0 mi North 3.5 mph - N/A   Clear
4:55 PM 56.3 °F - 12.4 °F 18% 30.04 in 10.0 mi North 4.6 mph - N/A   Clear
5:15 PM 55.2 °F - 11.3 °F 17% 30.04 in 10.0 mi NNE 5.8 mph - N/A   Clear
5:35 PM 52.9 °F - 11.3 °F 19% 30.04 in 10.0 mi NNE 3.5 mph - N/A   Clear
5:55 PM 42.1 °F - 11.8 °F 29% 30.04 in 10.0 mi Calm Calm - N/A   Clear
6:15 PM 38.3 °F - 11.7 °F 34% 30.05 in 10.0 mi Calm Calm - N/A   Clear
6:35 PM 40.6 °F - 13.5 °F 33% 30.06 in 10.0 mi Calm Calm - N/A   Clear
6:55 PM 39.0 °F - 13.8 °F 36% 30.06 in 10.0 mi Calm Calm - N/A   Clear
7:15 PM 38.5 °F - 14.0 °F 37% 30.06 in 10.0 mi Calm Calm - N/A   Clear
7:35 PM 35.8 °F - 12.9 °F 39% 30.06 in 10.0 mi Calm Calm - N/A   Clear
7:55 PM 31.1 °F 27.7 °F 12.6 °F 46% 30.06 in 10.0 mi West 3.5 mph - N/A   Clear
8:15 PM 30.9 °F 25.2 °F 14.2 °F 50% 30.07 in 10.0 mi SW 5.8 mph - N/A   Clear
8:35 PM 34.7 °F - 14.4 °F 43% 30.07 in 10.0 mi Calm Calm - N/A   Clear
8:55 PM 30.2 °F 25.4 °F 12.6 °F 48% 30.07 in 10.0 mi North 4.6 mph - N/A   Clear
9:15 PM 29.7 °F - 12.4 °F 49% 30.07 in 10.0 mi Calm Calm - N/A   Clear
9:35 PM 26.1 °F - 11.8 °F 55% 30.07 in 10.0 mi Calm Calm - N/A   Clear
9:55 PM 23.5 °F 14.5 °F 9.1 °F 54% 30.07 in 10.0 mi NNW 8.1 mph - N/A   Clear
10:15 PM 25.3 °F 18.5 °F 12.2 °F 58% 30.07 in 10.0 mi NW 5.8 mph - N/A   Clear
10:35 PM 25.2 °F 16.5 °F 12.4 °F 58% 30.07 in 10.0 mi NW 8.1 mph - N/A   Clear
10:55 PM 28.6 °F 21.5 °F 13.1 °F 52% 30.07 in 10.0 mi WNW 6.9 mph - N/A   Clear
11:15 PM 26.4 °F 18.9 °F 12.9 °F 57% 30.07 in 10.0 mi WNW 6.9 mph - N/A   Clear
11:35 PM 24.1 °F 17.0 °F 11.7 °F 59% 30.07 in 10.0 mi North 5.8 mph - N/A   Clear
11:55 PM 22.1 °F 13.7 °F 11.3 °F 63% 30.06 in 10.0 mi NW 6.9 mph - N/A   Clear